Location: Newark
(1.4667°N, 173.0333°E)
Time: 00:07:16
(UTC+00:00)

Hubble Space Telescope - Pass Details

Date: 22 March 2019
Orbit: 537 x 540 km, 28.5° (Epoch: 21 April)

Event Time Altitude Azimuth Distance (km) Brightness Sun altitude
Exits shadow 16:24:21 20° 83° (E) 1,265 3.3 -32.6°
Drops below altitude 10° 16:25:54 10° 96° (E) 1,780 4.3 -32.2°
Sets 16:28:18 0° 105° (ESE) 2,671 5.3 -31.6°
